Time,TemperatureF,DewpointF,PressureIn,WindDirection,WindDirectionDegrees,WindSpeedMPH,WindSpeedGustMPH,Humidity,HourlyPrecipIn,Conditions,Clouds,dailyrainin,SolarRadiationWatts/m^2,SoftwareType,DateUTC
2014-07-25 00:01:00,62.4,48.8,30.13,NE,45,6.9,6.9,61,0.00,RA,,0.00,0.0,WeatherDisplay:10.37,2014-07-25 04:01:00,
2014-07-25 00:02:00,62.4,48.8,30.13,NE,45,6.9,6.9,61,0.00,RA,,0.00,0.0,WeatherDisplay:10.37,2014-07-25 04:02:00,
2014-07-25 00:04:00,62.4,48.8,30.13,NE,45,6.9,6.9,61,0.00,RA,,0.00,0.0,WeatherDisplay:10.37,2014-07-25 04:04:00,
2014-07-25 00:07:00,62.4,48.8,30.14,NE,45,6.9,6.9,61,0.00,RA,,0.00,0.0,WeatherDisplay:10.37,2014-07-25 04:07:00,
2014-07-25 00:09:00,62.2,48.6,30.14,NNE,22,9.2,9.2,61,0.00,RA,,0.00,0.0,WeatherDisplay:10.37,2014-07-25 04:09:00,
2014-07-25 00:10:00,62.2,48.6,30.14,NE,40,5.0,9.0,61,0.00,CLR,,0.00,0.0,WeatherDisplay:10.37,2014-07-25 04:10:00,
2014-07-25 00:15:00,61.9,48.7,30.14,NE,45,5.8,5.8,62,0.00,CLR,,0.00,0.0,WeatherDisplay:10.37,2014-07-25 04:15:00,
2014-07-25 00:20:00,61.9,48.7,30.14,NNE,33,3.0,8.0,62,0.00,CLR,,0.00,0.0,WeatherDisplay:10.37,2014-07-25 04:20:00,
2014-07-25 00:25:00,61.7,48.5,30.14,North,0,5.8,5.8,62,0.00,CLR,,0.00,0.0,WeatherDisplay:10.37,2014-07-25 04:25:00,
2014-07-25 00:30:00,61.5,48.4,30.14,NE,41,2.0,7.0,62,0.00,CLR,,0.00,0.0,WeatherDisplay:10.37,2014-07-25 04:30:00,
2014-07-25 00:35:00,61.5,48.4,30.14,NE,45,8.1,8.1,62,0.00,CLR,,0.00,0.0,WeatherDisplay:10.37,2014-07-25 04:35:00,
2014-07-25 00:40:00,61.3,48.2,30.14,NE,54,3.0,7.0,62,0.00,CLR,,0.00,0.0,WeatherDisplay:10.37,2014-07-25 04:40:00,
2014-07-25 00:45:00,61.2,48.0,30.13,NE,45,5.8,5.8,62,0.00,CLR,,0.00,0.0,WeatherDisplay:10.37,2014-07-25 04:45:00,
2014-07-25 00:50:00,61.0,47.9,30.14,ENE,72,2.0,6.0,62,0.00,CLR,,0.00,0.0,WeatherDisplay:10.37,2014-07-25 04:50:00,
2014-07-25 00:55:00,60.8,47.7,30.13,East,90,4.6,4.6,62,0.00,CLR,,0.00,0.0,WeatherDisplay:10.37,2014-07-25 04:55:00,
2014-07-25 01:00:00,60.6,47.9,30.13,NE,45,5.8,5.8,63,0.00,CLR,,0.00,0.0,WeatherDisplay:10.37,2014-07-25 05:00:00,
2014-07-25 01:05:00,60.6,47.9,30.13,NE,45,3.5,3.5,63,0.00,CLR,,0.00,0.0,WeatherDisplay:10.37,2014-07-25 05:05:00,
2014-07-25 01:10:00,60.4,47.8,30.13,ENE,68,5.4,5.4,63,0.00,CLR,,0.00,0.0,WeatherDisplay:10.37,2014-07-25 05:10:00,
2014-07-25 01:15:00,60.4,47.8,30.13,NE,45,4.6,4.6,63,0.00,CLR,,0.00,0.0,WeatherDisplay:10.37,2014-07-25 05:15:00,
2014-07-25 01:20:00,60.1,47.9,30.13,East,90,5.8,5.8,64,0.00,CLR,,0.00,0.0,WeatherDisplay:10.37,2014-07-25 05:20:00,
2014-07-25 01:25:00,59.9,47.7,30.13,NE,45,3.5,3.5,64,0.00,CLR,,0.00,0.0,WeatherDisplay:10.37,2014-07-25 05:25:00,
2014-07-25 01:30:00,59.7,47.5,30.13,ENE,68,3.5,3.5,64,0.00,CLR,,0.00,0.0,WeatherDisplay:10.37,2014-07-25 05:30:00,
2014-07-25 01:35:00,59.5,47.8,30.12,East,90,3.5,0.0,65,0.00,CLR,,0.00,0.0,WeatherDisplay:10.37,2014-07-25 05:35:00,
2014-07-25 01:40:00,59.4,47.6,30.13,ENE,57,0.0,3.0,65,0.00,CLR,,0.00,0.0,WeatherDisplay:10.37,2014-07-25 05:40:00,
2014-07-25 01:45:00,59.4,48.0,30.13,NE,52,2.0,6.0,66,0.00,CLR,,0.00,0.0,WeatherDisplay:10.37,2014-07-25 05:45:00,
2014-07-25 01:50:00,59.4,48.0,30.13,NE,43,2.0,6.0,66,0.00,CLR,,0.00,0.0,WeatherDisplay:10.37,2014-07-25 05:50:00,
2014-07-25 01:55:00,59.5,48.2,30.14,ENE,68,4.6,4.6,66,0.00,CLR,,0.00,0.0,WeatherDisplay:10.37,2014-07-25 05:55:00,
2014-07-25 02:00:00,59.5,48.2,30.13,NE,45,3.5,3.5,66,0.00,CLR,,0.00,0.0,WeatherDisplay:10.37,2014-07-25 06:00:00,
2014-07-25 02:05:00,59.5,48.2,30.13,NE,45,5.8,5.8,66,0.00,CLR,,0.00,0.0,WeatherDisplay:10.37,2014-07-25 06:05:00,
2014-07-25 02:10:00,59.4,47.6,30.13,NE,51,0.0,6.0,65,0.00,CLR,,0.00,0.0,WeatherDisplay:10.37,2014-07-25 06:10:00,
2014-07-25 02:15:00,59.0,47.7,30.13,NNE,24,1.0,3.0,66,0.00,CLR,,0.00,0.0,WeatherDisplay:10.37,2014-07-25 06:15:00,
2014-07-25 02:20:00,59.0,47.7,30.13,NE,43,1.0,3.0,66,0.00,CLR,,0.00,0.0,WeatherDisplay:10.37,2014-07-25 06:20:00,
2014-07-25 02:25:00,59.0,47.7,30.12,NE,45,5.8,5.8,66,0.00,CLR,,0.00,0.0,WeatherDisplay:10.37,2014-07-25 06:25:00,
2014-07-25 02:30:00,58.8,47.5,30.12,ENE,73,2.0,4.0,66,0.00,CLR,,0.00,0.0,WeatherDisplay:10.37,2014-07-25 06:30:00,
2014-07-25 02:35:00,58.6,47.7,30.12,NE,45,3.5,3.5,67,0.00,CLR,,0.00,0.0,WeatherDisplay:10.37,2014-07-25 06:35:00,
2014-07-25 02:40:00,58.5,47.5,30.12,ENE,65,1.0,4.0,67,0.00,CLR,,0.00,0.0,WeatherDisplay:10.37,2014-07-25 06:40:00,
2014-07-25 02:45:00,58.3,47.8,30.12,NE,45,4.6,4.6,68,0.00,CLR,,0.00,0.0,WeatherDisplay:10.37,2014-07-25 06:45:00,
2014-07-25 02:50:00,58.3,47.8,30.12,ENE,65,2.0,5.0,68,0.00,CLR,,0.00,0.0,WeatherDisplay:10.37,2014-07-25 06:50:00,
2014-07-25 02:55:00,58.1,47.6,30.12,North,0,3.5,3.5,68,0.00,CLR,,0.00,0.0,WeatherDisplay:10.37,2014-07-25 06:55:00,
2014-07-25 03:00:00,57.9,47.8,30.12,East,90,5.8,5.8,69,0.00,CLR,,0.00,0.0,WeatherDisplay:10.37,2014-07-25 07:00:00,
2014-07-25 03:05:00,57.9,47.8,30.12,East,90,3.5,3.5,69,0.00,CLR,,0.00,0.0,WeatherDisplay:10.37,2014-07-25 07:05:00,
2014-07-25 03:10:00,57.9,47.8,30.12,ENE,66,2.0,5.0,69,0.00,CLR,,0.00,0.0,WeatherDisplay:10.37,2014-07-25 07:10:00,
2014-07-25 03:15:00,57.9,47.8,30.12,East,90,3.5,3.5,69,0.00,CLR,,0.00,0.0,WeatherDisplay:10.37,2014-07-25 07:15:00,
2014-07-25 03:20:00,57.9,47.8,30.12,East,90,3.5,3.5,69,0.00,CLR,,0.00,0.0,WeatherDisplay:10.37,2014-07-25 07:20:00,
2014-07-25 03:25:00,57.7,47.6,30.12,East,90,3.5,3.5,69,0.00,CLR,,0.00,0.0,WeatherDisplay:10.37,2014-07-25 07:25:00,
2014-07-25 03:30:00,57.7,47.6,30.12,East,91,1.0,5.0,69,0.00,CLR,,0.00,0.0,WeatherDisplay:10.37,2014-07-25 07:30:00,
2014-07-25 03:35:00,57.6,47.5,30.12,East,90,4.6,4.6,69,0.00,CLR,,0.00,0.0,WeatherDisplay:10.37,2014-07-25 07:35:00,
2014-07-25 03:40:00,57.6,47.8,30.12,SE,135,3.5,0.0,70,0.00,CLR,,0.00,0.0,WeatherDisplay:10.37,2014-07-25 07:40:00,
2014-07-25 03:45:00,57.4,47.7,30.12,NE,45,3.5,3.5,70,0.00,CLR,,0.00,0.0,WeatherDisplay:10.37,2014-07-25 07:45:00,
2014-07-25 03:50:00,57.2,47.9,30.12,ENE,71,0.0,3.0,71,0.00,CLR,,0.00,0.0,WeatherDisplay:10.37,2014-07-25 07:50:00,
2014-07-25 03:55:00,57.0,47.7,30.13,East,100,0.0,3.0,71,0.00,CLR,,0.00,0.0,WeatherDisplay:10.37,2014-07-25 07:55:00,
2014-07-25 04:00:00,56.8,47.5,30.12,ESE,121,0.0,3.0,71,0.00,OVC,,0.00,0.0,WeatherDisplay:10.37,2014-07-25 08:00:00,
2014-07-25 04:05:00,56.7,47.7,30.12,SE,134,0.0,2.0,72,0.00,OVC,,0.00,0.0,WeatherDisplay:10.37,2014-07-25 08:05:00,
2014-07-25 04:10:00,56.5,47.6,30.12,SE,135,0.0,1.0,72,0.00,OVC,,0.00,0.0,WeatherDisplay:10.37,2014-07-25 08:10:00,
2014-07-25 04:15:00,56.3,47.3,30.12,ESE,108,0.0,1.0,72,0.00,OVC,,0.00,0.0,WeatherDisplay:10.37,2014-07-25 08:15:00,
2014-07-25 04:20:00,56.1,47.2,30.12,East,97,0.0,2.0,72,0.00,OVC,,0.00,0.0,WeatherDisplay:10.37,2014-07-25 08:20:00,
2014-07-25 04:25:00,56.1,47.9,30.12,ESE,102,0.0,2.0,74,0.00,OVC,,0.00,0.0,WeatherDisplay:10.37,2014-07-25 08:25:00,
2014-07-25 04:30:00,56.1,47.9,30.12,SE,135,0.0,0.0,74,0.00,OVC,,0.00,0.0,WeatherDisplay:10.37,2014-07-25 08:30:00,
2014-07-25 04:35:00,55.9,47.8,30.12,SE,135,1.2,0.0,74,0.00,OVC,,0.00,0.0,WeatherDisplay:10.37,2014-07-25 08:35:00,
2014-07-25 04:40:00,55.9,48.1,30.12,SE,141,0.0,3.0,75,0.00,OVC,,0.00,0.0,WeatherDisplay:10.37,2014-07-25 08:40:00,
2014-07-25 04:45:00,55.9,48.1,30.12,SE,135,1.2,0.0,75,0.00,OVC,,0.00,0.0,WeatherDisplay:10.37,2014-07-25 08:45:00,
2014-07-25 04:50:00,55.8,48.7,30.11,East,90,2.3,2.3,77,0.00,OVC,,0.00,0.0,WeatherDisplay:10.37,2014-07-25 08:50:00,
2014-07-25 04:55:00,55.4,48.3,30.11,South,180,1.2,0.0,77,0.00,OVC,,0.00,0.0,WeatherDisplay:10.37,2014-07-25 08:55:00,
2014-07-25 05:00:00,55.2,48.8,30.12,SE,135,1.2,0.0,79,0.00,OVC,,0.00,0.0,WeatherDisplay:10.37,2014-07-25 09:00:00,
2014-07-25 05:05:00,55.2,48.8,30.11,SE,135,1.2,0.0,79,0.00,OVC,,0.00,0.0,WeatherDisplay:10.37,2014-07-25 09:05:00,
2014-07-25 05:10:00,55.2,48.5,30.12,South,180,0.0,0.0,78,0.00,OVC,,0.00,0.0,WeatherDisplay:10.37,2014-07-25 09:10:00,
2014-07-25 05:15:00,55.0,48.3,30.12,SE,135,0.0,0.0,78,0.00,OVC,,0.00,0.0,WeatherDisplay:10.37,2014-07-25 09:15:00,
2014-07-25 05:20:00,54.9,48.5,30.12,SE,135,1.2,0.0,79,0.00,OVC,,0.00,0.0,WeatherDisplay:10.37,2014-07-25 09:20:00,
2014-07-25 05:25:00,54.7,48.0,30.12,SE,135,0.0,0.0,78,0.00,OVC,,0.00,0.0,WeatherDisplay:10.37,2014-07-25 09:25:00,
2014-07-25 05:30:00,54.5,47.8,30.12,SE,135,0.0,0.0,78,0.00,OVC,,0.00,0.0,WeatherDisplay:10.37,2014-07-25 09:30:00,
2014-07-25 05:35:00,54.1,47.8,30.12,SE,135,0.0,0.0,79,0.00,OVC,,0.00,0.0,WeatherDisplay:10.37,2014-07-25 09:35:00,
2014-07-25 05:40:00,54.0,47.9,30.13,South,180,0.0,0.0,80,0.00,OVC,,0.00,0.0,WeatherDisplay:10.37,2014-07-25 09:40:00,
2014-07-25 05:45:00,54.3,48.6,30.13,South,180,0.0,0.0,81,0.00,OVC,,0.00,0.0,WeatherDisplay:10.37,2014-07-25 09:45:00,
2014-07-25 05:50:00,54.1,48.4,30.14,NW,315,0.0,0.0,81,0.00,OVC,,0.00,0.0,WeatherDisplay:10.37,2014-07-25 09:50:00,
2014-07-25 05:55:00,54.1,49.1,30.14,NW,315,1.2,0.0,83,0.00,OVC,,0.00,0.0,WeatherDisplay:10.37,2014-07-25 09:55:00,
2014-07-25 06:00:00,53.8,49.7,30.14,NW,315,1.2,0.0,86,0.00,OVC,,0.00,0.0,WeatherDisplay:10.37,2014-07-25 10:00:00,
2014-07-25 06:05:00,53.8,49.7,30.14,NW,315,1.2,0.0,86,0.00,OVC,,0.00,0.0,WeatherDisplay:10.37,2014-07-25 10:05:00,
2014-07-25 06:10:00,53.6,49.8,30.15,NW,315,0.0,1.0,87,0.00,OVC,,0.00,0.0,WeatherDisplay:10.37,2014-07-25 10:10:00,
2014-07-25 06:15:00,53.4,50.0,30.15,NW,315,0.0,1.0,88,0.00,OVC,,0.00,0.0,WeatherDisplay:10.37,2014-07-25 10:15:00,
2014-07-25 06:20:00,53.4,50.6,30.16,NW,315,0.0,2.0,90,0.00,OVC,,0.00,0.0,WeatherDisplay:10.37,2014-07-25 10:20:00,
2014-07-25 06:25:00,53.4,50.9,30.16,NW,315,1.2,0.0,91,0.00,OVC,,0.00,0.0,WeatherDisplay:10.37,2014-07-25 10:25:00,
2014-07-25 06:30:00,53.4,50.9,30.16,West,274,0.0,1.0,91,0.00,OVC,,0.00,0.0,WeatherDisplay:10.37,2014-07-25 10:30:00,
2014-07-25 06:35:00,53.4,51.2,30.16,West,270,0.0,0.0,92,0.00,OVC,,0.00,0.0,WeatherDisplay:10.37,2014-07-25 10:35:00,
2014-07-25 06:40:00,53.6,51.6,30.16,NW,315,1.2,0.0,93,0.00,OVC,,0.00,0.0,WeatherDisplay:10.37,2014-07-25 10:40:00,